Home > Weather > Jyväskylä > Past weeks

Flag for Finland Weather for the Past 2 Weeks in Jyväskylä, Finland

Now
36 °F

Mostly cloudy.


Feels Like: 26 °F
Forecast: 36 / 38 °F
Wind: 16 mph from South

Location: Kuopio Airport

Current Time: Feb 8, 2016 at 12:59:52 AM

Latest Report: Feb 7, 2016 at 11:50 PM


Visibility: 5 mi

Pressure: 29.47 "Hg

Humidity: 93%

Dew point: 34 °F

Location of JyväskyläLocation

Historic Weather in Jyväskylä — Graph

°F

Jyväskylä Temperature Yesterday

Maximum temperature yesterday: 36 °F (at 9:20 AM)
Minimum temperature yesterday: 25 °F (at 12:20 AM)
Average temperature yesterday: 34 °F

High & Low Weather Summary for the Past Weeks

 TemperatureHumidityPressure
High36 °F (Jan 30, 4:50 AM)100% (Jan 24, 6:50 AM)30.18 "Hg (Jan 24, 6:50 AM)
Low12 °F (Feb 5, 4:20 PM)73% (Feb 5, 12:50 PM)28.68 "Hg (Feb 2, 3:20 PM)
Average27 °F92%29.34 "Hg
* Reported Jan 23 11:20 PM — Feb 7 11:50 PM, Jyväskylä, Weather by CustomWeather, © 2016

Note: Actual official high and low records may vary slightly from our data, if they occured in-between our weather recording intervals... More about our weather records

Advertising

Jyväskylä Weather History for the Previous 24 Hours

 ConditionsComfort  
Time TempWeatherWind HumidityBarometerVisibility
11:50 PM
Sun, Feb 7
36 °FMostly cloudy.16 mph93%29.47 "Hg5 mi
11:20 PM36 °FMostly cloudy.16 mph100%29.47 "Hg5 mi
10:50 PM36 °FLow clouds.16 mph100%29.47 "Hg4 mi
10:20 PM36 °FLow clouds.14 mph100%29.50 "Hg3 mi
9:50 PM36 °FLow clouds.13 mph100%29.50 "Hg3 mi
9:20 PM36 °FLow clouds.10 mph100%29.50 "Hg4 mi
8:50 PM36 °FLow clouds.13 mph100%29.50 "Hg6 mi
8:20 PM36 °FLow clouds.14 mph100%29.50 "Hg4 mi
7:50 PM36 °FFog.14 mph100%29.50 "Hg3 mi
7:20 PM36 °FFog.14 mph100%29.50 "Hg2 mi
6:50 PM36 °FLow clouds.14 mph100%29.50 "Hg3 mi
6:20 PM36 °FFog.15 mph100%29.50 "Hg3 mi
5:50 PM36 °FFog.15 mph100%29.50 "Hg1 mi
5:20 PM36 °FLow clouds.12 mph100%29.50 "Hg6 mi
4:50 PM36 °FLow clouds.13 mph100%29.50 "HgN/A
4:20 PM36 °FLow clouds.10 mph100%29.50 "HgN/A
3:50 PM36 °FLow clouds.12 mph93%29.50 "HgN/A
3:20 PM36 °FSprinkles. Low clouds.9 mph93%29.53 "HgN/A
2:50 PM36 °FLight rain. Overcast.8 mph93%29.53 "HgN/A
2:20 PM36 °FOvercast.7 mph93%29.53 "HgN/A
1:50 PM36 °FOvercast.8 mph93%29.53 "HgN/A
1:20 PM36 °FOvercast.10 mph93%29.53 "HgN/A
12:50 PM36 °FLow clouds.9 mph93%29.53 "HgN/A
12:20 PM36 °FLow clouds.9 mph93%29.53 "HgN/A
11:50 AM36 °FLow clouds.8 mph93%29.53 "Hg6 mi
11:20 AM36 °FLow clouds.8 mph93%29.53 "Hg5 mi
10:50 AM36 °FLow clouds.9 mph93%29.53 "HgN/A
10:20 AM36 °FLow clouds.8 mph93%29.53 "HgN/A
9:50 AM36 °FLow clouds.9 mph93%29.53 "HgN/A
9:20 AM36 °FLow clouds.9 mph93%29.53 "Hg4 mi
8:50 AM34 °FLow clouds.9 mph100%29.50 "Hg3 mi
8:20 AM34 °FLow clouds.10 mph100%29.50 "Hg5 mi
7:50 AM34 °FLow clouds.10 mph100%29.50 "HgN/A
7:20 AM34 °FLow clouds.12 mph93%29.50 "HgN/A
6:50 AM34 °FSprinkles. Low clouds.13 mph93%29.50 "Hg4 mi
6:20 AM32 °FSprinkles. Low clouds.14 mph100%29.50 "Hg3 mi
5:50 AM32 °FLow clouds.13 mph100%29.50 "Hg4 mi
5:20 AM30 °FIce fog.12 mph100%29.50 "Hg3 mi
4:50 AM30 °FLow clouds.10 mph100%29.53 "Hg4 mi
4:20 AM30 °FLow clouds.12 mph93%29.50 "HgN/A
3:50 AM28 °FLow clouds.15 mph100%29.50 "HgN/A
3:20 AM28 °FSnow flurries. Low clouds.13 mph93%29.53 "Hg6 mi
2:50 AM28 °FLow clouds.12 mph93%29.53 "HgN/A
1:50 AM27 °FLight snow. Low clouds.14 mph93%29.56 "HgN/A
12:50 AM27 °FLight snow. Low clouds.13 mph93%29.56 "Hg1 mi
12:20 AM25 °FLight snow. Overcast.13 mph93%29.59 "Hg3 mi
Weather by CustomWeather, © 2016

See weather overviewHow to use our weather pages